SWR1901 LSZH-LEMD

Flight info

Callsign SWR1901
Flight time N/A
Altitude 33000
Route VEBIT T50 ROTOS Z669 ULMES DCT VADAR DCT NINTU/N0428F370 DCT MEBAK DCT REPSI DCT LERGA DCT MINSO DCT NARAK DCT AGN/N0429F390 DCT MAQAB DCT TIVLI DCT ELSAP DCT ZAR DCT KONKE DCT TERSA
Aircraft BCS3/M-SBDE2E3GIRWXY/LB1

Departure

Time 2026-04-26 15:19
Airport Zürich Airport (LSZH)

Arrival

Time N/A
Airport Adolfo Suárez Madrid–Barajas Airport (LEMD)
Time Latitude Longitude Altitude Speed Heading
2026-04-26 15:00 47.46048 8.55412 1389 ft 0 kts
2026-04-26 15:10 47.46044 8.55411 1389 ft 2 kts 355°
2026-04-26 15:11 47.46029 8.55413 1389 ft 2 kts
2026-04-26 15:11 47.46014 8.55410 1389 ft 2 kts
2026-04-26 15:11 47.46003 8.55408 1389 ft 0 kts
2026-04-26 15:11 47.45989 8.55409 1390 ft 2 kts 337°
2026-04-26 15:12 47.45977 8.55422 1390 ft 2 kts 309°
2026-04-26 15:12 47.45970 8.55441 1390 ft 0 kts 281°
2026-04-26 15:12 47.45970 8.55450 1390 ft 1 kts 275°
2026-04-26 15:12 47.45970 8.55453 1390 ft 0 kts 276°
2026-04-26 15:13 47.45970 8.55452 1390 ft 0 kts 276°
2026-04-26 15:15 47.45972 8.55422 1390 ft 10 kts 276°
2026-04-26 15:15 47.45972 8.55414 1390 ft 0 kts 274°
2026-04-26 15:16 47.45973 8.55395 1390 ft 7 kts 274°
2026-04-26 15:16 47.45980 8.55260 1388 ft 19 kts 275°
2026-04-26 15:16 47.46002 8.55016 1384 ft 23 kts 282°
2026-04-26 15:17 47.46007 8.54960 1383 ft 8 kts 301°
2026-04-26 15:17 47.46067 8.54908 1383 ft 21 kts 335°
2026-04-26 15:17 47.46330 8.54726 1383 ft 40 kts 333°
2026-04-26 15:17 47.46629 8.54520 1383 ft 54 kts 336°
2026-04-26 15:18 47.46963 8.54302 1382 ft 50 kts 335°
2026-04-26 15:18 47.47305 8.54068 1382 ft 55 kts 335°
2026-04-26 15:18 47.47599 8.53834 1388 ft 26 kts 294°
2026-04-26 15:18 47.47541 8.53646 1387 ft 21 kts 194°
2026-04-26 15:19 47.47380 8.53726 1386 ft 46 kts 155°
2026-04-26 15:19 47.46843 8.54096 1380 ft 119 kts 154°
2026-04-26 15:19 47.45980 8.54678 1685 ft 137 kts 154°
2026-04-26 15:19 47.45205 8.55182 2318 ft 126 kts 154°
2026-04-26 15:20 47.44329 8.55747 2621 ft 140 kts 154°
2026-04-26 15:20 47.43343 8.55565 2100 ft 183 kts 226°
2026-04-26 15:20 47.42998 8.53757 2096 ft 183 kts 269°
2026-04-26 15:20 47.43290 8.51927 2162 ft 185 kts 296°
2026-04-26 15:21 47.44115 8.50446 2253 ft 184 kts 321°
2026-04-26 15:21 47.45248 8.49542 2341 ft 184 kts 342°
2026-04-26 15:21 47.46505 8.49287 2441 ft 184 kts
2026-04-26 15:21 47.47763 8.49665 2545 ft 184 kts 20°
2026-04-26 15:22 47.48897 8.50588 2647 ft 185 kts 37°
2026-04-26 15:22 47.49638 8.52156 2627 ft 193 kts 73°
2026-04-26 15:22 47.49431 8.54134 2587 ft 205 kts 115°
2026-04-26 15:22 47.48238 8.55350 2109 ft 235 kts 180°
2026-04-26 15:23 47.46820 8.54336 1844 ft 220 kts 230°
2026-04-26 15:23 47.46224 8.52392 2746 ft 209 kts 259°
2026-04-26 15:23 47.46349 8.50311 3492 ft 203 kts 291°
2026-04-26 15:23 47.47158 8.48678 4193 ft 196 kts 322°
2026-04-26 15:24 47.48195 8.47466 4943 ft 194 kts 315°
2026-04-26 15:24 47.48790 8.45659 5578 ft 197 kts 285°
2026-04-26 15:24 47.48741 8.43662 6188 ft 199 kts 257°
2026-04-26 15:24 47.48085 8.41829 6668 ft 207 kts 232°
2026-04-26 15:25 47.47017 8.40315 7110 ft 218 kts 223°
2026-04-26 15:25 47.46250 8.39287 7409 ft 228 kts 223°
2026-04-26 15:25 47.44609 8.37091 7969 ft 248 kts 223°
2026-04-26 15:25 47.43283 8.35309 8410 ft 263 kts 223°
2026-04-26 15:26 47.41887 8.33435 8824 ft 279 kts 222°
2026-04-26 15:26 47.40438 8.31491 9183 ft 280 kts 223°
2026-04-26 15:26 47.38983 8.29537 9525 ft 280 kts 222°
2026-04-26 15:26 47.37539 8.27600 9867 ft 281 kts 223°
2026-04-26 15:27 47.36073 8.25636 10212 ft 282 kts 223°
2026-04-26 15:27 47.34877 8.23389 10540 ft 282 kts 248°
2026-04-26 15:27 47.34076 8.20702 10933 ft 285 kts 239°
2026-04-26 15:27 47.33123 8.18129 11285 ft 286 kts 244°
2026-04-26 15:28 47.32175 8.15542 11633 ft 287 kts 244°
2026-04-26 15:28 47.31246 8.12915 11988 ft 289 kts 242°
2026-04-26 15:28 47.30319 8.10284 12340 ft 290 kts 243°
2026-04-26 15:28 47.29367 8.07613 12690 ft 291 kts 243°
2026-04-26 15:29 47.28426 8.04978 13035 ft 293 kts 243°
2026-04-26 15:29 47.27470 8.02303 13391 ft 295 kts 243°
2026-04-26 15:29 47.25780 7.96742 14091 ft 298 kts 248°
2026-04-26 15:30 47.24194 7.91049 14793 ft 299 kts 250°
2026-04-26 15:30 47.23397 7.88216 15146 ft 300 kts 249°
2026-04-26 15:30 47.22605 7.85382 15485 ft 301 kts 249°
2026-04-26 15:31 47.21800 7.82514 15832 ft 302 kts 249°
2026-04-26 15:31 47.20184 7.76778 16531 ft 305 kts 249°
2026-04-26 15:31 47.19361 7.73857 16866 ft 306 kts 249°
2026-04-26 15:32 47.17396 7.69525 17481 ft 311 kts 234°
2026-04-26 15:32 47.15575 7.66178 17939 ft 313 kts 234°
2026-04-26 15:32 47.14221 7.63666 18298 ft 314 kts 233°
2026-04-26 15:33 47.12850 7.61131 18663 ft 316 kts 234°
2026-04-26 15:33 47.11462 7.58567 19027 ft 318 kts 234°
2026-04-26 15:33 47.10080 7.56017 19387 ft 320 kts 234°
2026-04-26 15:33 47.08691 7.53454 19750 ft 321 kts 234°
2026-04-26 15:34 47.07287 7.50861 20115 ft 324 kts 234°
2026-04-26 15:34 47.05878 7.48267 20479 ft 325 kts 234°
2026-04-26 15:34 47.04468 7.45667 20840 ft 328 kts 234°
2026-04-26 15:34 47.03036 7.43034 21204 ft 330 kts 234°
2026-04-26 15:35 47.01574 7.40356 21577 ft 332 kts 234°
2026-04-26 15:35 47.00133 7.37723 21940 ft 334 kts 234°
2026-04-26 15:35 46.98655 7.35021 22313 ft 336 kts 234°
2026-04-26 15:35 46.97191 7.32355 22686 ft 338 kts 233°
2026-04-26 15:36 46.95697 7.29626 23063 ft 340 kts 233°
2026-04-26 15:36 46.94226 7.26942 23435 ft 341 kts 233°
2026-04-26 15:36 46.92735 7.24222 23817 ft 343 kts 234°
2026-04-26 15:36 46.91227 7.21473 24206 ft 344 kts 234°
2026-04-26 15:37 46.89713 7.18714 24594 ft 344 kts 234°
2026-04-26 15:37 46.88203 7.15964 24974 ft 345 kts 234°
2026-04-26 15:37 46.86709 7.13248 25341 ft 345 kts 234°
2026-04-26 15:37 46.85190 7.10491 25717 ft 345 kts 234°
2026-04-26 15:38 46.83681 7.07751 26089 ft 344 kts 234°
2026-04-26 15:38 46.82177 7.05026 26460 ft 343 kts 234°
2026-04-26 15:38 46.80675 7.02303 26832 ft 342 kts 234°
2026-04-26 15:38 46.79180 6.99601 27203 ft 341 kts 234°
2026-04-26 15:39 46.77680 6.96890 27577 ft 339 kts 234°
2026-04-26 15:39 46.76201 6.94221 27948 ft 337 kts 234°
2026-04-26 15:39 46.74716 6.91546 28319 ft 335 kts 234°
2026-04-26 15:39 46.73751 6.89807 28562 ft 333 kts 234°
2026-04-26 15:40 46.71805 6.86298 29056 ft 329 kts 234°
2026-04-26 15:40 46.70368 6.83713 29421 ft 325 kts 234°
2026-04-26 15:40 46.68934 6.81136 29792 ft 320 kts 234°
2026-04-26 15:40 46.67542 6.78642 30172 ft 315 kts 234°
2026-04-26 15:41 46.66161 6.76163 30532 ft 310 kts 234°
2026-04-26 15:41 46.64937 6.73597 30845 ft 302 kts 243°
2026-04-26 15:41 46.63865 6.70976 31222 ft 294 kts 243°
2026-04-26 15:41 46.62805 6.68399 31569 ft 287 kts 243°
2026-04-26 15:42 46.61785 6.65939 31912 ft 278 kts 243°
2026-04-26 15:42 46.60788 6.63544 32240 ft 268 kts 243°
2026-04-26 15:42 46.59842 6.61278 32551 ft 253 kts 243°
2026-04-26 15:42 46.58956 6.59164 32887 ft 229 kts 243°
2026-04-26 15:43 46.58170 6.57295 32927 ft 206 kts 244°
2026-04-26 15:43 46.57414 6.55510 32296 ft 213 kts 243°
2026-04-26 15:43 46.55806 6.51680 31003 ft 214 kts 244°
2026-04-26 15:44 46.55034 6.49864 30704 ft 203 kts 243°
2026-04-26 15:44 46.53509 6.46283 29404 ft 212 kts 243°
2026-04-26 15:44 46.52738 6.44481 29049 ft 203 kts 243°
2026-04-26 15:45 46.51242 6.40999 27974 ft 205 kts 243°
2026-04-26 15:45 46.50500 6.39255 27522 ft 201 kts 243°
2026-04-26 15:46 46.49061 6.35876 26644 ft 197 kts 243°
2026-04-26 15:46 46.48336 6.34164 26169 ft 196 kts 242°
2026-04-26 15:46 46.47635 6.32510 25791 ft 191 kts 242°
2026-04-26 15:46 46.47167 6.31407 25524 ft 189 kts 242°
2026-04-26 15:47 46.46241 6.29235 24925 ft 190 kts 242°
2026-04-26 15:47 46.44870 6.26000 24157 ft 184 kts 242°
2026-04-26 15:47 46.44204 6.24425 23750 ft 183 kts 242°
2026-04-26 15:48 46.43534 6.22845 23373 ft 181 kts 242°
2026-04-26 15:48 46.42820 6.21077 24289 ft 209 kts 243°
2026-04-26 15:48 46.42109 6.19395 25353 ft 242 kts 243°
2026-04-26 15:48 46.41363 6.17583 28104 ft 276 kts 242°
2026-04-26 15:49 46.40526 6.15638 30187 ft 215 kts 239°
2026-04-26 15:49 46.39643 6.13808 29542 ft 237 kts 238°
2026-04-26 15:49 46.38664 6.11827 29125 ft 230 kts 237°
2026-04-26 15:49 46.37748 6.10052 29432 ft 219 kts 237°
2026-04-26 15:50 46.36805 6.08265 29048 ft 219 kts 236°
2026-04-26 15:50 46.35903 6.06565 28915 ft 202 kts 236°
2026-04-26 15:50 46.35039 6.04953 28469 ft 203 kts 236°
2026-04-26 15:50 46.34103 6.03002 29237 ft 232 kts 238°
2026-04-26 15:51 46.33144 6.01109 29238 ft 243 kts 239°
2026-04-26 15:51 46.32230 5.98849 28528 ft 268 kts 247°
2026-04-26 15:51 46.31539 5.96444 28782 ft 256 kts 254°
2026-04-26 15:51 46.31056 5.93927 28799 ft 255 kts 262°
2026-04-26 15:52 46.30802 5.91386 28924 ft 248 kts 269°
2026-04-26 15:52 46.30778 5.88904 29039 ft 240 kts 276°
2026-04-26 15:52 46.30975 5.86547 29157 ft 230 kts 284°
2026-04-26 15:52 46.31221 5.85066 29252 ft 221 kts 290°
2026-04-26 15:53 46.31943 5.82423 29304 ft 195 kts 300°
2026-04-26 15:53 46.32523 5.80714 29122 ft 182 kts 300°
2026-04-26 15:53 46.33108 5.79006 28346 ft 197 kts 300°
2026-04-26 15:53 46.33740 5.77198 27751 ft 199 kts 300°
2026-04-26 15:54 46.34343 5.75464 27567 ft 183 kts 300°
2026-04-26 15:54 46.34909 5.73818 27129 ft 183 kts 300°
2026-04-26 15:54 46.35490 5.72121 26503 ft 191 kts 300°
2026-04-26 15:54 46.36082 5.70401 26145 ft 183 kts 300°
2026-04-26 15:55 46.36641 5.68764 25821 ft 177 kts 300°
2026-04-26 15:55 46.37194 5.67151 25299 ft 182 kts 300°
2026-04-26 15:55 46.37767 5.65492 24866 ft 181 kts 300°
2026-04-26 15:55 46.38318 5.63896 24553 ft 174 kts 299°
2026-04-26 15:56 46.38856 5.62331 24143 ft 175 kts 299°
2026-04-26 15:56 46.39412 5.60730 23697 ft 176 kts 299°
2026-04-26 15:56 46.39951 5.59172 23375 ft 171 kts 299°
2026-04-26 15:56 46.40485 5.57631 23019 ft 170 kts 299°
2026-04-26 15:57 46.41019 5.56091 22622 ft 171 kts 299°
2026-04-26 15:57 46.41555 5.54538 22293 ft 168 kts 299°
2026-04-26 15:57 46.42070 5.53047 21966 ft 166 kts 299°
2026-04-26 15:57 46.42422 5.52030 21710 ft 166 kts 299°
2026-04-26 15:58 46.43117 5.50016 21283 ft 163 kts 299°
2026-04-26 15:58 46.43624 5.48549 20972 ft 162 kts 299°
2026-04-26 15:58 46.44139 5.47066 20640 ft 161 kts 299°
2026-04-26 15:58 46.44642 5.45620 20340 ft 159 kts 299°
2026-04-26 15:59 46.45149 5.44163 20024 ft 158 kts 299°
2026-04-26 15:59 46.45649 5.42737 19704 ft 158 kts 299°
2026-04-26 15:59 46.46149 5.41312 19424 ft 156 kts 299°
2026-04-26 15:59 46.46641 5.39908 19145 ft 154 kts 299°
2026-04-26 16:00 46.47131 5.38512 18856 ft 154 kts 299°
2026-04-26 16:00 46.47617 5.37130 18579 ft 152 kts 299°
2026-04-26 16:00 46.48101 5.35753 18304 ft 151 kts 299°
2026-04-26 16:00 46.48586 5.34383 18019 ft 151 kts 298°
2026-04-26 16:01 46.49068 5.33016 17760 ft 150 kts 298°
2026-04-26 16:01 46.49545 5.31665 17502 ft 148 kts 298°
2026-04-26 16:01 46.50015 5.30331 17240 ft 148 kts 298°
2026-04-26 16:01 46.50490 5.28979 16977 ft 147 kts 298°
2026-04-26 16:02 46.50952 5.27656 16718 ft 147 kts 298°
2026-04-26 16:02 46.51413 5.26326 16477 ft 146 kts 298°
2026-04-26 16:02 46.51878 5.24983 16237 ft 145 kts 298°
2026-04-26 16:02 46.52181 5.24104 16070 ft 144 kts 298°
2026-04-26 16:03 46.52783 5.22364 15754 ft 143 kts 298°
2026-04-26 16:03 46.53241 5.21043 15525 ft 142 kts 298°
2026-04-26 16:03 46.53692 5.19748 15301 ft 142 kts 298°
2026-04-26 16:03 46.54148 5.18441 15055 ft 142 kts 298°
2026-04-26 16:04 46.54601 5.17139 14846 ft 140 kts 298°
2026-04-26 16:04 46.55045 5.15860 14623 ft 140 kts 298°
2026-04-26 16:04 46.55487 5.14580 14397 ft 141 kts 298°
2026-04-26 16:04 46.55930 5.13288 14201 ft 139 kts 298°
2026-04-26 16:05 46.56362 5.12031 14001 ft 138 kts 298°
2026-04-26 16:05 46.56797 5.10764 13794 ft 138 kts 298°
2026-04-26 16:05 46.57228 5.09512 13609 ft 137 kts 298°
2026-04-26 16:05 46.57658 5.08268 13413 ft 136 kts 298°
2026-04-26 16:06 46.58089 5.07020 13210 ft 136 kts 298°
2026-04-26 16:06 46.58514 5.05789 13027 ft 135 kts 298°
2026-04-26 16:06 46.58944 5.04548 12826 ft 136 kts 298°
2026-04-26 16:06 46.59372 5.03310 12628 ft 136 kts 298°
2026-04-26 16:07 46.59797 5.02076 12442 ft 135 kts 298°
2026-04-26 16:07 46.60223 5.00839 12253 ft 135 kts 298°
2026-04-26 16:07 46.60644 4.99611 12070 ft 135 kts 298°
2026-04-26 16:07 46.61064 4.98376 11911 ft 133 kts 298°
2026-04-26 16:08 46.61480 4.97152 11740 ft 132 kts 298°
2026-04-26 16:08 46.61758 4.96336 11614 ft 132 kts 298°
2026-04-26 16:08 46.62306 4.94737 11419 ft 130 kts 298°
2026-04-26 16:08 46.62713 4.93537 11246 ft 129 kts 298°
2026-04-26 16:09 46.63117 4.92341 11064 ft 129 kts 298°
2026-04-26 16:09 46.63517 4.91144 10903 ft 129 kts 298°
2026-04-26 16:09 46.63916 4.89953 10736 ft 129 kts 298°
2026-04-26 16:09 46.64311 4.88769 10571 ft 129 kts 298°
2026-04-26 16:10 46.64711 4.87580 10411 ft 128 kts 298°
2026-04-26 16:10 46.65105 4.86412 10250 ft 128 kts 298°
2026-04-26 16:10 46.65499 4.85244 10101 ft 128 kts 298°
2026-04-26 16:10 46.65895 4.84072 9947 ft 127 kts 298°
2026-04-26 16:11 46.66291 4.82907 9791 ft 128 kts 298°
2026-04-26 16:11 46.66685 4.81734 9642 ft 127 kts 298°
2026-04-26 16:11 46.67078 4.80568 9494 ft 127 kts 298°
2026-04-26 16:11 46.67469 4.79404 9354 ft 126 kts 298°
2026-04-26 16:12 46.67851 4.78260 9215 ft 125 kts 298°
2026-04-26 16:12 46.68236 4.77104 9073 ft 124 kts 298°
2026-04-26 16:12 46.68986 4.74837 8799 ft 122 kts 298°
2026-04-26 16:13 46.69363 4.73699 8661 ft 122 kts 298°
2026-04-26 16:13 46.69740 4.72573 8533 ft 121 kts 298°
2026-04-26 16:13 46.70114 4.71450 8387 ft 121 kts 298°
2026-04-26 16:13 46.70492 4.70317 8254 ft 121 kts 298°
2026-04-26 16:14 46.70864 4.69209 8128 ft 120 kts 298°
2026-04-26 16:14 46.71238 4.68095 7985 ft 120 kts 298°
2026-04-26 16:14 46.71985 4.65885 7740 ft 118 kts 298°
2026-04-26 16:15 46.72351 4.64792 7602 ft 119 kts 298°
2026-04-26 16:15 46.72716 4.63687 7487 ft 118 kts 298°
2026-04-26 16:15 46.73073 4.62612 7362 ft 118 kts 298°
2026-04-26 16:16 46.73790 4.60426 7118 ft 117 kts 298°
2026-04-26 16:16 46.74144 4.59341 6993 ft 117 kts 298°
2026-04-26 16:16 46.74495 4.58256 6877 ft 116 kts 297°
2026-04-26 16:16 46.74843 4.57196 6772 ft 115 kts 297°
2026-04-26 16:17 46.75194 4.56135 6644 ft 116 kts 298°
2026-04-26 16:17 46.75550 4.55071 6537 ft 115 kts 298°
2026-04-26 16:17 46.75906 4.54012 6422 ft 114 kts 298°
2026-04-26 16:17 46.76257 4.52965 6310 ft 114 kts 298°
2026-04-26 16:18 46.76611 4.51916 6216 ft 111 kts 298°
2026-04-26 16:18 46.77300 4.49832 5988 ft 111 kts 297°
2026-04-26 16:19 46.77965 4.47760 5767 ft 110 kts 297°
2026-04-26 16:19 46.78286 4.46732 5674 ft 108 kts 297°
2026-04-26 16:19 46.78809 4.45034 5472 ft 110 kts 297°
2026-04-26 16:20 46.79227 4.43658 5353 ft 107 kts 297°
2026-04-26 16:20 46.79843 4.41627 5127 ft 108 kts 297°
2026-04-26 16:20 46.80136 4.40640 5039 ft 105 kts 297°
2026-04-26 16:21 46.80434 4.39631 4913 ft 108 kts 297°
2026-04-26 16:21 46.80730 4.38621 4832 ft 105 kts 297°
2026-04-26 16:21 46.81009 4.37641 4717 ft 106 kts 297°
2026-04-26 16:21 46.81295 4.36624 4605 ft 106 kts 297°
2026-04-26 16:22 46.81569 4.35630 4518 ft 104 kts 297°
2026-04-26 16:22 46.81842 4.34630 4390 ft 106 kts 297°
2026-04-26 16:22 46.82118 4.33617 4298 ft 104 kts 297°
2026-04-26 16:22 46.82383 4.32638 4198 ft 103 kts 297°
2026-04-26 16:23 46.82656 4.31632 4083 ft 104 kts 297°
2026-04-26 16:23 46.82923 4.30642 4004 ft 101 kts 297°
2026-04-26 16:23 46.83183 4.29665 3881 ft 102 kts 297°
2026-04-26 16:23 46.83447 4.28669 3781 ft 103 kts 297°
2026-04-26 16:24 46.83699 4.27697 3708 ft 98 kts 297°
2026-04-26 16:24 46.83952 4.26712 3537 ft 105 kts 297°
2026-04-26 16:24 46.84206 4.25705 3472 ft 100 kts 297°
2026-04-26 16:24 46.84440 4.24750 3359 ft 99 kts 297°
2026-04-26 16:25 46.84687 4.23746 3230 ft 104 kts 297°
2026-04-26 16:25 46.84918 4.22791 3216 ft 94 kts 297°
2026-04-26 16:25 46.85147 4.21831 3030 ft 104 kts 296°
2026-04-26 16:25 46.85392 4.20837 2983 ft 98 kts 297°
2026-04-26 16:26 46.85610 4.19922 2887 ft 96 kts 297°
2026-04-26 16:26 46.85767 4.19270 2743 ft 104 kts 296°
2026-04-26 16:26 46.86078 4.17986 2721 ft 91 kts 296°
2026-04-26 16:26 46.86292 4.17065 2480 ft 106 kts 296°
2026-04-26 16:27 46.86541 4.16040 2475 ft 97 kts 297°
2026-04-26 16:27 46.86733 4.15174 2349 ft 89 kts 297°
2026-04-26 16:27 46.86991 4.14120 2025 ft 119 kts 297°
2026-04-26 16:27 46.87198 4.13207 2360 ft 63 kts 297°
2026-04-26 16:28 46.87275 4.12684 1191 ft 139 kts 297°
2026-04-26 16:28 46.87294 4.12612 1018 ft 0 kts 298°
2026-04-26 16:29 46.87295 4.12612 1018 ft 0 kts 298°
2026-04-26 16:31 46.87295 4.12613 1017 ft 0 kts 298°
2026-04-26 16:34 46.87295 4.12614 1017 ft 0 kts 298°
2026-04-26 16:36 46.87296 4.12614 1017 ft 0 kts 298°
2026-04-26 16:37 46.87296 4.12615 1017 ft 0 kts 299°
2026-04-26 16:40 46.87297 4.12616 1016 ft 0 kts 299°
2026-04-26 16:43 46.87297 4.12617 1016 ft 0 kts 299°
2026-04-26 16:47 46.87297 4.12618 1016 ft 0 kts 300°
2026-04-26 16:47 46.87298 4.12618 1016 ft 0 kts 300°
2026-04-26 16:50 46.87298 4.12619 1016 ft 0 kts 300°
2026-04-26 16:52 46.87299 4.12619 1016 ft 0 kts 300°
2026-04-26 16:53 46.87299 4.12620 1016 ft 0 kts 300°